Weather History for Seward, AK

Change the Weather History Date:

Tuesday, November 1, 2011

  Actual Average Record
Temperature  
Mean Temperature 31 °F -  
Max Temperature 35 °F 40 °F 80 °F (1969)
Min Temperature 28 °F 30 °F 5 °F (1975)
Degree Days  
Heating Degree Days 34    
Moisture  
Dew Point 20 °F    
Average Humidity 65    
Maximum Humidity 79    
Minimum Humidity 46    
Precipitation  
Precipitation 0.00 in - - ()
Sea Level Pressure  
Sea Level Pressure 29.20 in    
Wind  
Wind Speed 22 mph (NNW)    
Max Wind Speed 30 mph    
Max Gust Speed 54 mph    
Visibility 6 miles    
Events Snow    
Averages and records for this station are not official NWS values.
T = Trace of Precipitation, MM = Missing Value Source: NWS Daily Summary

Daily Weather History Graph

Daily Weather History Graph

Search for Another Location

Airport:

Trip Planner

Search our weather history database for the weather conditions in past years. The results will help you decide how hot, cold, wet, or windy it might be!

Date:

Astronomy

Nov. 01, 2011 Rise Set
Actual Time 9:20 AM AKDT 6:01 PM AKDT
Civil Twilight 8:34 AM AKDT 6:46 PM AKDT
Nautical Twilight 7:45 AM AKDT 7:36 PM AKDT
Astronomical Twilight 6:56 AM AKDT 8:24 PM AKDT
Moon 3:27 PM AKDT (11/1) 11:45 PM AKDT (11/1)
Length of Visible Light 10h 11m
Length of Day
8h 40m
Waxing Crescent, 41% of the Moon is Illuminated
Nov 1
Waxing Crescent
Nov 2
First Quarter
Nov 10
Full
Nov 18
Last Quarter
Nov 24
New

Hourly Weather History & Observations

Time (AKDT) Temp. Windchill Dew Point Humidity Pressure Visibility Wind Dir Wind Speed Gust Speed Precip Events Conditions
12:53 AM 30.0 °F 17.9 °F 24.1 °F 79% 29.45 in 10.0 mi North 18.4 mph 28.8 mph N/A   Mostly Cloudy
1:53 AM 30.0 °F 16.6 °F 24.1 °F 79% 29.42 in 10.0 mi North 23.0 mph 29.9 mph N/A   Overcast
2:53 AM 30.0 °F 16.0 °F 24.1 °F 79% 29.38 in 10.0 mi North 25.3 mph 33.4 mph N/A   Overcast
3:53 AM 30.9 °F 17.8 °F 23.0 °F 72% 29.34 in 10.0 mi North 23.0 mph 33.4 mph N/A   Overcast
5:53 AM 30.9 °F 18.4 °F 21.9 °F 69% 29.26 in 10.0 mi North 20.7 mph 38.0 mph N/A   Overcast
6:53 AM 32.0 °F 20.8 °F 21.9 °F 66% 29.22 in 10.0 mi North 17.3 mph 31.1 mph N/A   Overcast
7:53 AM 30.9 °F 20.2 °F 21.9 °F 69% 29.17 in 10.0 mi North 15.0 mph 23.0 mph N/A   Overcast
8:53 AM 30.9 °F 18.4 °F 21.0 °F 67% 29.14 in 4.0 mi NNW 20.7 mph 43.7 mph 0.00 in Snow Light Snow
9:10 AM 30.2 °F 19.8 °F 19.4 °F 64% 29.14 in 2.5 mi NNW 13.8 mph 42.6 mph 0.00 in Snow Light Snow
9:18 AM 30.2 °F 15.7 °F 19.4 °F 64% 29.13 in 3.0 mi NW 27.6 mph 39.1 mph 0.00 in Snow Light Snow
9:42 AM 28.4 °F 14.1 °F 19.4 °F 69% 29.11 in 2.0 mi NNW 24.2 mph 44.9 mph 0.00 in Snow Light Snow
9:50 AM 28.4 °F 13.8 °F 19.4 °F 69% 29.11 in 1.5 mi NNW 25.3 mph 42.6 mph 0.00 in Snow Light Snow
9:53 AM 28.9 °F 14.3 °F 19.9 °F 69% 29.12 in 1.5 mi NNW 26.5 mph 43.7 mph 0.00 in Snow Light Snow
10:20 AM 28.4 °F 14.4 °F 21.2 °F 74% 29.10 in 0.8 mi NNW 23.0 mph 43.7 mph 0.00 in Snow Light Snow
10:44 AM 28.4 °F 13.8 °F 19.4 °F 69% 29.09 in 1.2 mi North 25.3 mph 50.6 mph 0.00 in Snow Light Snow
10:53 AM 28.9 °F 14.5 °F 19.9 °F 69% 29.08 in 1.0 mi NW 25.3 mph 43.7 mph 0.00 in Snow Light Snow
11:53 AM 28.9 °F 16.5 °F 19.9 °F 69% 29.08 in 2.0 mi North 18.4 mph 36.8 mph 0.00 in Snow Light Snow
12:00 PM 28.4 °F 16.6 °F 19.4 °F 69% 29.08 in 1.8 mi North 16.1 mph 36.8 mph 0.00 in Snow Light Snow
12:11 PM 28.4 °F 15.1 °F 19.4 °F 69% 29.08 in 1.8 mi North 20.7 mph 40.3 mph 0.00 in Snow Light Snow
12:18 PM 28.4 °F 13.8 °F 19.4 °F 69% 29.08 in 3.0 mi North 25.3 mph 39.1 mph 0.00 in Snow Light Snow
12:53 PM 30.0 °F 17.2 °F 21.0 °F 69% 29.06 in 5.0 mi North 20.7 mph 35.7 mph 0.00 in Snow Light Snow
1:53 PM 30.0 °F 16.0 °F 21.9 °F 72% 29.06 in 9.0 mi North 25.3 mph 38.0 mph 0.00 in   Overcast
2:53 PM 30.9 °F 18.4 °F 23.0 °F 72% 29.05 in 7.0 mi North 20.7 mph 40.3 mph 0.00 in Snow Light Snow
3:53 PM 32.0 °F 18.1 °F 24.1 °F 73% 29.06 in 10.0 mi North 27.6 mph 43.7 mph 0.00 in   Overcast
4:53 PM 33.1 °F 20.1 °F 19.9 °F 59% 29.06 in 10.0 mi North 25.3 mph 43.7 mph N/A   Overcast
5:53 PM 34.0 °F 21.0 °F 18.0 °F 52% 29.12 in 10.0 mi NNW 26.5 mph 38.0 mph 0.00 in   Overcast
6:53 PM 34.0 °F 20.8 °F 15.1 °F 46% 29.18 in 10.0 mi NW 27.6 mph 39.1 mph N/A   Overcast
7:53 PM 34.0 °F 20.8 °F 15.1 °F 46% 29.21 in 10.0 mi NNW 27.6 mph 54.1 mph 0.00 in   Overcast
8:38 PM 33.8 °F 20.1 °F 15.8 °F 48% 29.30 in 5.0 mi NNW 29.9 mph 43.7 mph 0.00 in Snow Light Snow
8:53 PM 32.0 °F 18.1 °F 17.1 °F 54% 29.32 in 4.0 mi NNW 27.6 mph 41.4 mph 0.00 in Snow Light Snow
9:05 PM 32.0 °F 18.1 °F 17.6 °F 55% 29.33 in 7.0 mi NNW 27.6 mph 44.9 mph 0.00 in Snow Light Snow
9:53 PM 30.9 °F 16.9 °F 17.1 °F 57% 29.37 in 10.0 mi NNW 26.5 mph 40.3 mph 0.00 in   Mostly Cloudy
10:53 PM 30.9 °F 18.7 °F 16.0 °F 54% 29.45 in 10.0 mi NNW 19.6 mph 36.8 mph N/A   Overcast
11:53 PM 30.9 °F 17.2 °F 16.0 °F 54% 29.52 in 10.0 mi North 25.3 mph 41.4 mph N/A   Overcast